KB4KY Weather Reports


time (UTC)temp
F
wind
direction
speed
knots
gust
knots
rain 1hr
in
rain 24hr
in
rain mn
in
humidity
%
barometer
mb
20260509053217 59 241 0.0 0.9 0.00 0.00 0.00 66 1008.8
20260509052717 59 206 0.0 2.6 0.00 0.00 0.00 65 1008.8
20260509052216 59 205 1.7 1.7 0.00 0.00 0.00 66 1008.8
20260509051716 59 187 0.0 0.0 0.00 0.00 0.00 65 1008.8
20260509051216 59 187 0.0 0.0 0.00 0.00 0.00 65 1008.7
20260509050717 59 187 0.0 0.0 0.00 0.00 0.00 66 1008.7
20260509050216 59 187 0.0 0.9 0.00 0.00 0.00 66 1008.8
20260509045715 59 206 0.0 1.7 0.00 0.00 0.00 66 1008.7
20260509045215 59 213 0.9 2.6 0.00 0.00 0.00 66 1008.7
20260509044714 59 208 1.7 2.6 0.00 0.00 0.00 66 1008.6
20260509044214 59 202 0.0 3.5 0.00 0.00 0.00 66 1008.6
20260509043714 59 212 0.9 2.6 0.00 0.00 0.00 67 1008.5
20260509043213 59 219 1.7 2.6 0.00 0.00 0.00 67 1008.6
20260509042713 59 272 0.9 1.7 0.00 0.00 0.00 68 1008.6
20260509042214 59 189 0.9 1.7 0.00 0.00 0.00 67 1008.6
20260509041715 59 188 0.0 1.7 0.00 0.00 0.00 67 1008.7
20260509041212 59 151 0.0 0.9 0.00 0.00 0.00 65 1008.8
20260509040712 60 140 0.0 0.9 0.00 0.00 0.00 65 1008.8
20260509040214 60 210 0.0 0.0 0.00 0.00 0.00 64 1008.9
20260509035711 60 210 0.0 0.0 0.00 0.00 0.00 63 1009.0
20260509035211 60 210 0.0 0.0 0.00 0.00 0.00 62 1009.0
20260509034715 61 210 0.0 0.0 0.00 0.00 0.00 62 1008.9
20260509034212 61 210 0.0 0.0 0.00 0.00 0.00 61 1008.9
20260509033710 61 210 0.0 0.0 0.00 0.00 0.00 61 1008.8
20260509033211 61 210 0.0 0.0 0.00 0.00 0.00 61 1008.9
20260509032710 61 210 0.0 0.0 0.00 0.00 0.00 60 1009.0
20260509032209 61 210 0.0 0.0 0.00 0.00 0.00 60 1009.1
20260509031709 61 210 0.0 0.0 0.00 0.00 0.00 60 1009.2
20260509031209 61 210 0.0 0.0 0.00 0.00 0.00 60 1009.3
20260509030709 61 210 0.0 0.0 0.00 0.00 0.00 60 1009.2
20260509030208 61 210 0.0 0.0 0.00 0.00 0.00 60 1009.2
20260509025708 61 210 0.0 0.0 0.00 0.00 0.00 60 1009.3
20260509025219 61 210 0.0 0.0 0.00 0.00 0.00 59 1009.4
20260509024210 61 210 0.0 0.9 0.00 0.00 0.00 60 1009.5
20260509023710 61 170 0.0 1.7 0.00 0.00 0.00 59 1009.4
20260509023206 61 202 0.9 1.7 0.00 0.00 0.00 59 1009.4
20260509022707 61 106 0.0 0.0 0.00 0.00 0.00 60 1009.4
20260509022206 61 106 0.0 0.9 0.00 0.00 0.00 59 1009.4
20260509021707 62 237 0.0 0.0 0.00 0.00 0.00 59 1009.4
20260509021205 62 237 0.0 0.0 0.00 0.00 0.00 58 1009.4
20260509020705 62 237 0.0 0.0 0.00 0.00 0.00 58 1009.5
20260509020209 62 237 0.0 0.0 0.00 0.00 0.00 58 1009.4
20260509015705 62 237 0.0 0.0 0.00 0.00 0.00 58 1009.3
20260509015205 62 237 0.0 0.0 0.00 0.00 0.00 57 1009.2
20260509014704 62 237 0.0 0.0 0.00 0.00 0.00 57 1009.2
20260509014205 62 237 0.0 0.0 0.00 0.00 0.00 57 1009.3
20260509013708 63 237 0.0 0.0 0.00 0.00 0.00 56 1009.3
20260509013206 63 237 0.0 0.0 0.00 0.00 0.00 56 1009.3
20260509012707 63 237 0.0 0.9 0.00 0.00 0.00 55 1009.2
20260509012206 63 177 0.0 1.7 0.00 0.00 0.00 54 1009.2
20260509011704 64 189 0.0 0.0 0.00 0.00 0.00 54 1009.2
20260509011203 64 189 0.0 0.0 0.00 0.00 0.00 53 1009.3
20260509010702 65 189 0.0 0.0 0.00 0.00 0.00 52 1009.3
20260509010203 65 189 0.0 0.0 0.00 0.00 0.00 52 1009.2
20260509005702 65 189 0.0 0.0 0.00 0.00 0.00 52 1009.1
20260509005202 66 189 0.0 0.0 0.00 0.00 0.00 53 1009.1
20260509004702 66 189 0.0 0.0 0.00 0.00 0.00 51 1009.1
20260509004201 66 189 0.0 0.0 0.00 0.00 0.00 51 1009.1
20260509003703 67 189 0.0 0.0 0.00 0.00 0.00 52 1009.2
20260509003201 67 189 0.0 0.0 0.00 0.00 0.00 49 1009.2
20260509002701 67 189 0.0 0.0 0.00 0.00 0.00 49 1009.1
20260509002201 68 189 0.0 2.6 0.00 0.00 0.00 48 1009.1
20260509001700 68 144 0.0 1.7 0.00 0.00 0.00 47 1009.2
20260509001200 68 174 0.0 1.7 0.00 0.00 0.00 47 1009.2
20260509000700 68 180 0.0 2.6 0.00 0.00 0.00 47 1009.2
20260509000159 69 168 1.7 4.3 0.00 0.00 0.00 47 1009.1
20260508235659 69 216 2.6 3.5 0.00 0.00 0.00 46 1009.2
20260508235201 69 202 0.9 4.3 0.00 0.00 0.00 46 1009.3
20260508234658 70 241 0.9 2.6 0.00 0.00 0.00 47 1009.3
20260508234159 70 201 0.0 6.1 0.00 0.00 0.00 46 1009.4
20260508233700 71 189 0.9 1.7 0.00 0.00 0.00 46 1009.4
20260508233158 71 226 0.9 7.0 0.00 0.00 0.00 44 1009.4
20260508232657 71 192 2.6 2.6 0.00 0.00 0.00 46 1009.4
20260508232200 72 208 0.0 0.9 0.00 0.00 0.00 44 1009.5
20260508231656 72 198 0.0 3.5 0.00 0.00 0.00 42 1009.5
20260508231155 72 206 2.6 4.3 0.00 0.00 0.00 42 1009.6
20260508230659 73 217 3.5 5.2 0.00 0.00 0.00 43 1009.6
20260508230154 73 189 1.7 4.3 0.00 0.00 0.00 41 1009.7
20260508225654 74 255 0.0 2.6 0.00 0.00 0.00 42 1009.7
20260508225155 74 185 0.0 7.0 0.00 0.00 0.00 42 1009.7
20260508224654 73 239 1.7 4.3 0.00 0.00 0.00 42 1009.6
20260508224153 73 220 1.7 10.4 0.00 0.00 0.00 41 1009.6
20260508223654 74 225 0.9 7.8 0.00 0.00 0.00 38 1009.5
20260508223153 75 220 0.9 2.6 0.00 0.00 0.00 40 1009.5
20260508222652 75 191 0.0 5.2 0.00 0.00 0.00 40 1009.4
20260508222154 75 206 1.7 5.2 0.00 0.00 0.00 38 1009.6
20260508221652 75 247 1.7 5.2 0.00 0.00 0.00 41 1009.6
20260508221152 75 246 0.9 5.2 0.00 0.00 0.00 40 1009.7
20260508220651 74 261 0.9 2.6 0.00 0.00 0.00 41 1009.6
20260508220151 74 281 0.9 6.1 0.00 0.00 0.00 40 1009.5
20260508215650 74 222 0.0 9.6 0.00 0.00 0.00 40 1009.6
20260508215150 74 210 8.7 8.7 0.00 0.00 0.00 39 1009.5
20260508214650 74 210 2.6 6.1 0.00 0.00 0.00 41 1009.5
20260508214150 75 215 0.9 7.0 0.00 0.00 0.00 39 1009.5
20260508213651 75 272 2.6 9.6 0.00 0.00 0.00 41 1009.6
20260508213150 75 244 0.9 6.1 0.00 0.00 0.00 40 1009.6
20260508212650 76 250 3.5 8.7 0.00 0.00 0.00 39 1009.6
20260508212150 76 213 0.0 5.2 0.00 0.00 0.00 40 1009.7
20260508211650 76 223 3.5 5.2 0.00 0.00 0.00 37 1009.7
20260508210652 75 264 0.0 3.5 0.00 0.00 0.00 41 1009.8
20260508210150 75 206 0.9 5.2 0.00 0.00 0.00 44 1009.9
20260508205656 74 232 2.6 5.2 0.00 0.00 0.00 40 1010.0
20260508205153 74 239 0.0 3.5 0.00 0.00 0.00 42 1009.9
20260508204650 73 165 0.9 13.0 0.00 0.00 0.00 42 1009.8
20260508204151 75 201 3.5 8.7 0.00 0.00 0.00 39 1010.0
20260508203648 76 240 1.7 6.1 0.00 0.00 0.00 40 1010.2
20260508203147 76 253 2.6 6.1 0.00 0.00 0.00 40 1010.3
20260508202648 76 223 0.9 6.1 0.00 0.00 0.00 41 1010.5
20260508202149 75 185 2.6 5.2 0.00 0.00 0.00 41 1010.6
20260508201646 75 279 4.3 4.3 0.00 0.00 0.00 42 1010.6
20260508201145 75 267 3.5 5.2 0.00 0.00 0.00 41 1010.7
20260508200645 75 222 0.0 5.2 0.00 0.00 0.00 39 1010.8
20260508200144 75 219 2.6 7.8 0.00 0.00 0.00 42 1010.9
20260508195645 75 203 3.5 6.1 0.00 0.00 0.00 41 1011.0
20260508195150 75 178 0.9 4.3 0.00 0.00 0.00 38 1011.3
20260508194648 75 239 2.6 3.5 0.00 0.00 0.00 43 1011.3
20260508194144 74 243 0.9 4.3 0.00 0.00 0.00 43 1011.4
20260508193644 74 205 3.5 6.1 0.00 0.00 0.00 39 1011.5
20260508193146 74 241 1.7 8.7 0.00 0.00 0.00 37 1011.4
20260508192648 74 226 0.9 5.2 0.00 0.00 0.00 43 1011.4
20260508192145 74 234 1.7 7.0 0.00 0.00 0.00 45 1011.3
20260508191645 73 153 2.6 9.6 0.00 0.00 0.00 44 1011.3
20260508191143 73 187 7.8 9.6 0.00 0.00 0.00 37 1011.3
20260508190643 73 227 1.7 3.5 0.00 0.00 0.00 40 1011.3
20260508190145 73 191 2.6 6.1 0.00 0.00 0.00 43 1011.4
20260508185640 72 217 1.7 7.8 0.00 0.00 0.00 41 1011.4
20260508185140 72 177 2.6 9.6 0.00 0.00 0.00 43 1011.3
20260508184640 73 172 8.7 9.6 0.00 0.00 0.00 38 1011.4
20260508184139 73 129 2.6 4.3 0.00 0.00 0.00 42 1011.5
20260508183645 72 216 1.7 9.6 0.00 0.00 0.00 46 1011.5
20260508183139 72 216 5.2 9.6 0.00 0.00 0.00 43 1011.5
20260508182638 72 201 1.7 2.6 0.00 0.00 0.00 44 1011.6
20260508182138 71 282 0.9 7.0 0.00 0.00 0.00 42 1011.9
20260508181641 71 192 1.7 9.6 0.00 0.00 0.00 47 1012.0
20260508181139 71 171 7.0 12.2 0.00 0.00 0.00 46 1012.0
20260508180639 72 210 3.5 7.8 0.00 0.00 0.00 48 1012.1
20260508180138 73 167 3.5 3.5 0.00 0.00 0.00 45 1012.2
20260508175638 72 203 1.7 5.2 0.00 0.00 0.00 44 1012.2
20260508175140 71 260 0.9 6.1 0.00 0.00 0.00 46 1012.3
20260508174638 71 215 3.5 7.8 0.00 0.00 0.00 45 1012.5
20260508174137 71 196 0.0 7.0 0.00 0.00 0.00 45 1012.6
20260508173637 70 191 7.0 12.2 0.00 0.00 0.00 41 1012.7
20260508173137 71 208 7.8 13.0 0.00 0.00 0.00 38 1012.8
20260508172636 72 217 0.0 5.2 0.00 0.00 0.00 44 1012.9
20260508172136 71 232 0.9 7.0 0.00 0.00 0.00 43 1013.1
20260508171636 70 254 1.7 3.5 0.00 0.00 0.00 46 1013.1
20260508171135 70 215 3.5 12.2 0.00 0.00 0.00 47 1013.1
20260508170635 69 220 4.3 8.7 0.00 0.00 0.00 49 1013.2
20260508170135 69 184 7.8 13.0 0.00 0.00 0.00 42 1013.3
20260508165635 70 201 6.1 7.0 0.00 0.00 0.00 48 1013.4
20260508165134 69 239 1.7 6.1 0.00 0.00 0.00 47 1013.5
20260508164634 69 208 2.6 9.6 0.00 0.00 0.00 47 1013.6
20260508164133 69 233 3.5 7.8 0.00 0.00 0.00 44 1013.6
20260508163633 69 170 0.9 13.0 0.00 0.00 0.00 47 1013.8
20260508163132 69 189 4.3 4.3 0.00 0.00 0.00 49 1013.9
20260508162631 69 241 2.6 9.6 0.00 0.00 0.00 46 1014.1
20260508162131 69 192 5.2 7.8 0.00 0.00 0.00 46 1014.2
20260508161631 69 202 1.7 7.8 0.00 0.00 0.00 45 1014.3
20260508161131 68 195 5.2 5.2 0.00 0.00 0.00 54 1014.3
20260508160630 68 284 3.5 6.1 0.00 0.00 0.00 45 1014.4
20260508160130 68 199 5.2 8.7 0.00 0.00 0.00 47 1014.5
20260508155630 69 185 0.9 7.0 0.00 0.00 0.00 46 1014.5
20260508155131 69 189 4.3 7.0 0.00 0.00 0.00 48 1014.6
20260508154629 69 225 2.6 7.8 0.00 0.00 0.00 49 1014.7
20260508154130 69 180 0.9 6.1 0.00 0.00 0.00 43 1014.9
20260508153630 69 208 1.7 4.3 0.00 0.00 0.00 48 1014.9
20260508153129 69 194 0.0 5.2 0.00 0.00 0.00 44 1015.2
20260508152631 69 261 0.0 4.3 0.00 0.00 0.00 48 1015.2
20260508152130 69 158 1.7 5.2 0.00 0.00 0.00 47 1015.3
20260508151629 68 189 0.9 3.5 0.00 0.00 0.00 52 1015.4
20260508151128 68 265 1.7 4.3 0.00 0.00 0.00 51 1015.5
20260508150627 68 136 0.0 6.1 0.00 0.00 0.00 48 1015.6
20260508150128 68 122 0.0 2.6 0.00 0.00 0.00 49 1015.6
20260508145627 68 213 0.9 4.3 0.00 0.00 0.00 48 1015.7
20260508145126 68 241 3.5 3.5 0.00 0.00 0.00 49 1015.8
20260508144626 68 277 0.0 2.6 0.00 0.00 0.00 49 1015.9
20260508144125 67 241 0.0 2.6 0.00 0.00 0.00 52 1015.9
20260508143625 67 213 0.9 3.5 0.00 0.00 0.00 51 1015.9
20260508143125 67 206 0.0 2.6 0.00 0.00 0.00 51 1015.9
20260508142625 66 227 0.9 5.2 0.00 0.00 0.00 52 1016.1
20260508142124 66 234 0.0 2.6 0.00 0.00 0.00 55 1016.1
20260508141624 66 257 1.7 3.5 0.00 0.00 0.00 57 1016.2
20260508141124 65 216 0.0 4.3 0.00 0.00 0.00 56 1016.1
20260508140623 65 189 0.9 1.7 0.00 0.00 0.00 55 1016.1
20260508140123 64 305 0.0 5.2 0.00 0.00 0.00 54 1016.2
20260508135623 64 205 0.9 6.1 0.00 0.00 0.00 54 1016.2
20260508135122 63 213 0.9 2.6 0.00 0.00 0.00 57 1016.3
20260508134622 63 182 0.9 2.6 0.00 0.00 0.00 56 1016.3
20260508134123 62 219 0.9 3.5 0.00 0.00 0.00 56 1016.4
20260508133628 62 234 0.0 3.5 0.00 0.00 0.00 60 1016.5
20260508133127 61 233 0.0 5.2 0.00 0.00 0.00 59 1016.5
20260508132621 61 264 2.6 4.3 0.00 0.00 0.00 58 1016.5
20260508132121 60 178 0.0 1.7 0.00 0.00 0.00 59 1016.5
20260508131623 59 184 0.0 3.5 0.00 0.00 0.00 64 1016.7
20260508131123 58 156 0.0 1.7 0.00 0.00 0.00 66 1016.6
20260508130620 57 239 0.0 0.9 0.00 0.00 0.00 69 1016.7
20260508130120 56 187 0.0 3.5 0.00 0.00 0.00 65 1016.8
20260508125622 55 185 0.0 2.6 0.00 0.00 0.00 71 1016.9
20260508125119 55 203 1.7 3.5 0.00 0.00 0.00 71 1016.8
20260508124619 54 194 3.5 3.5 0.00 0.00 0.00 73 1016.8
20260508124121 53 202 0.0 5.2 0.00 0.00 0.00 76 1016.9
20260508123619 52 184 0.0 3.5 0.00 0.00 0.00 78 1016.9
20260508123119 52 171 1.7 3.5 0.00 0.00 0.00 76 1017.0
20260508122619 51 192 1.7 3.5 0.00 0.00 0.00 76 1017.0
20260508122125 51 192 1.7 3.5 0.00 0.00 0.00 77 1017.0
20260508121636 50 189 2.6 4.3 0.00 0.00 0.00 80 1017.1
20260508121120 49 199 0.9 3.5 0.00 0.00 0.00 82 1017.1
20260508120622 48 154 0.9 4.3 0.00 0.00 0.00 83 1017.1
20260508120116 48 136 0.0 1.7 0.00 0.00 0.00 85 1017.1
20260508115616 47 112 0.0 0.9 0.00 0.00 0.00 85 1017.0
20260508115118 47 157 0.0 0.0 0.00 0.00 0.00 85 1017.0
20260508114616 46 172 0.0 0.9 0.00 0.00 0.00 86 1017.0
20260508114117 45 140 0.0 0.9 0.00 0.00 0.00 85 1017.0
20260508113621 45 153 0.0 2.6 0.00 0.00 0.00 86 1017.0
20260508113117 44 194 2.6 2.6 0.00 0.00 0.00 86 1016.9
20260508112617 44 209 2.6 2.6 0.00 0.00 0.00 87 1016.9
20260508112115 43 194 0.9 2.6 0.00 0.00 0.00 87 1016.8
20260508111614 43 171 0.9 3.5 0.00 0.00 0.00 88 1016.7
20260508111117 43 191 2.6 2.6 0.00 0.00 0.00 90 1016.6
20260508110615 42 192 0.9 2.6 0.00 0.00 0.00 90 1016.6
20260508110117 42 191 0.9 0.9 0.00 0.00 0.00 90 1016.5
20260508105619 42 196 0.0 0.0 0.00 0.00 0.00 90 1016.5
20260508105119 42 175 0.0 0.0 0.00 0.00 0.00 89 1016.4
20260508104617 42 175 0.0 0.0 0.00 0.00 0.00 89 1016.4
20260508104145 42 175 0.0 0.0 0.00 0.00 0.00 89 1016.4
20260508104118 42 175 0.0 0.0 0.00 0.00 0.00 89 1016.4
20260508103614 42 175 0.0 0.0 0.00 0.00 0.00 89 1016.4
20260508103231 43 175 0.0 0.0 0.00 0.00 0.00 88 1016.3
20260508103115 42 175 0.0 0.0 0.00 0.00 0.00 88 1016.3
20260508102635 43 175 0.0 0.0 0.00 0.00 0.00 88 1016.3
20260508102616 43 175 0.0 0.0 0.00 0.00 0.00 88 1016.3
20260508102115 43 175 0.0 0.0 0.00 0.00 0.00 88 1016.3
20260508101614 43 175 0.0 0.0 0.00 0.00 0.00 88 1016.1
20260508101112 43 175 0.0 0.0 0.00 0.00 0.00 87 1016.2
20260508100647 43 175 0.0 0.0 0.00 0.00 0.00 86 1016.3
20260508100610 43 175 0.0 0.0 0.00 0.00 0.00 86 1016.3
20260508100153 43 175 0.0 0.0 0.00 0.00 0.00 86 1016.1
20260508100109 43 175 0.0 0.0 0.00 0.00 0.00 86 1016.1
20260508095611 43 175 0.0 0.0 0.00 0.00 0.00 87 1016.1
20260508095220 44 175 0.0 0.0 0.00 0.00 0.00 86 1016.3
20260508095109 43 175 0.0 0.0 0.00 0.00 0.00 86 1016.2
20260508094608 44 175 0.0 0.0 0.00 0.00 0.00 86 1016.3
20260508094108 44 175 0.0 0.0 0.00 0.00 0.00 86 1016.3
20260508093611 44 175 0.0 0.0 0.00 0.00 0.00 86 1016.3
20260508093108 44 175 0.0 0.0 0.00 0.00 0.00 85 1016.2
20260508092612 44 175 0.0 0.0 0.00 0.00 0.00 86 1016.3
20260508092110 44 175 0.0 0.0 0.00 0.00 0.00 87 1016.3
20260508091608 44 175 0.0 0.0 0.00 0.00 0.00 87 1016.3
20260508091106 44 175 0.0 0.0 0.00 0.00 0.00 86 1016.3
20260508090608 44 175 0.0 0.0 0.00 0.00 0.00 86 1016.3
20260508090109 43 175 0.0 0.0 0.00 0.00 0.00 87 1016.2
20260508085605 43 175 0.0 0.0 0.00 0.00 0.00 89 1016.2
20260508085105 42 175 0.0 0.0 0.00 0.00 0.00 90 1016.2
20260508084908 42 175 0.0 0.0 0.00 0.00 0.00 92 1016.3
20260508084606 42 175 0.0 0.0 0.00 0.00 0.00 91 1016.2
20260508084226 42 175 0.0 0.0 0.00 0.00 0.00 93 1016.2
20260508084107 42 175 0.0 0.0 0.00 0.00 0.00 92 1016.3
20260508083604 42 175 0.0 0.0 0.00 0.00 0.00 92 1016.2
20260508083112 42 175 0.0 0.0 0.00 0.00 0.00 92 1016.2
20260508082642 42 175 0.0 0.0 0.00 0.00 0.00 93 1016.2
20260508082607 42 175 0.0 0.0 0.00 0.00 0.00 93 1016.2
20260508082110 42 175 0.0 0.0 0.00 0.00 0.00 93 1016.2
20260508081645 42 171 0.0 0.9 0.00 0.00 0.00 92 1016.3
20260508081604 42 175 0.0 0.9 0.00 0.00 0.00 93 1016.2
20260508081104 42 171 0.0 0.9 0.00 0.00 0.00 92 1016.3
20260508080603 42 109 0.0 0.0 0.00 0.00 0.00 93 1016.3
20260508080104 42 109 0.0 0.0 0.00 0.00 0.00 92 1016.2
20260508075602 42 109 0.0 0.0 0.00 0.00 0.00 93 1016.2
20260508075102 42 187 0.0 0.0 0.00 0.00 0.00 92 1016.3
20260508074713 42 187 0.0 0.0 0.00 0.00 0.00 92 1016.2
20260508074602 42 187 0.0 0.0 0.00 0.00 0.00 92 1016.2
20260508074104 42 187 0.0 0.0 0.00 0.00 0.00 92 1016.2
20260508073703 43 181 0.0 0.9 0.00 0.00 0.00 91 1016.2
20260508073601 42 187 0.0 0.0 0.00 0.00 0.00 93 1016.2
20260508073101 42 187 0.0 0.0 0.00 0.00 0.00 92 1016.2
20260508072605 43 181 0.0 0.9 0.00 0.00 0.00 91 1016.2
20260508072100 43 191 0.0 0.0 0.00 0.00 0.00 93 1016.2
20260508071600 43 191 0.0 0.0 0.00 0.00 0.00 92 1016.1
20260508071201 43 191 0.0 0.0 0.00 0.00 0.00 92 1016.1
20260508071059 43 191 0.0 0.0 0.00 0.00 0.00 92 1016.1
20260508070733 43 191 0.0 0.0 0.00 0.00 0.00 92 1016.1
20260508070600 43 191 0.0 0.0 0.00 0.00 0.00 92 1016.1
20260508070100 43 191 0.0 0.0 0.00 0.00 0.00 92 1016.1
20260508065936 43 191 0.0 0.0 0.00 0.00 0.00 91 1016.2
20260508065603 43 191 0.0 0.0 0.00 0.00 0.00 92 1016.1
20260508065059 43 191 0.0 0.0 0.00 0.00 0.00 92 1016.1
20260508064559 43 191 0.0 0.0 0.00 0.00 0.00 91 1016.2
20260508064413 43 216 0.0 0.0 0.00 0.00 0.00 91 1016.1
20260508064058 43 216 0.0 0.0 0.00 0.00 0.00 91 1016.1
20260508063557 43 216 0.0 0.0 0.00 0.00 0.00 91 1016.2
20260508063058 43 216 0.0 0.0 0.00 0.00 0.00 91 1016.2
20260508062557 43 216 0.0 0.0 0.00 0.00 0.00 91 1016.2
20260508062056 43 216 0.0 0.0 0.00 0.00 0.00 91 1016.2
20260508061558 43 216 0.0 0.0 0.00 0.00 0.00 91 1016.2
20260508061246 43 216 0.0 0.0 0.00 0.00 0.00 91 1016.2
20260508061124 45 216 0.0 0.0 0.00 0.00 0.00 89 1016.4
20260508061057 43 216 0.0 0.0 0.00 0.00 0.00 91 1016.2
20260508060556 44 216 0.0 0.0 0.00 0.00 0.00 91 1016.1
20260508060059 44 216 0.0 0.0 0.00 0.00 0.00 90 1016.1
20260508055557 44 216 0.0 0.0 0.00 0.00 0.00 90 1016.2
20260508055057 44 216 0.0 0.0 0.00 0.00 0.00 89 1016.2
20260508054557 45 216 0.0 0.0 0.00 0.00 0.00 90 1016.3
20260508054054 45 216 0.0 0.0 0.00 0.00 0.00 89 1016.3